BAW817 EKCH-EGLL

Flight info

Callsign BAW817
Flight time 1h 31m
Altitude 34000
Route LANGO2A LANGO DCT RAXLU DCT JUIST DCT ABNED L980 LOGAN LOGAN2H
Aircraft A320/M-SDE3FGIJ1KRWXY/SB1

Departure

Time 2026-05-07 11:35
Airport Copenhagen Kastrup Airport (EKCH)

Arrival

Time 2026-05-07 13:06
Airport London Heathrow Airport (EGLL)
Time Latitude Longitude Altitude Speed Heading
2026-05-07 11:09 55.62695 12.65091 19 ft 0 kts 290°
2026-05-07 11:24 55.62691 12.65108 19 ft 4 kts 290°
2026-05-07 11:24 55.62682 12.65152 17 ft 4 kts 290°
2026-05-07 11:25 55.62673 12.65197 19 ft 4 kts 279°
2026-05-07 11:25 55.62673 12.65235 20 ft 4 kts 216°
2026-05-07 11:25 55.62677 12.65240 20 ft 0 kts 177°
2026-05-07 11:28 55.62669 12.65240 20 ft 2 kts 179°
2026-05-07 11:29 55.62648 12.65232 18 ft 4 kts 194°
2026-05-07 11:29 55.62611 12.65216 17 ft 7 kts 194°
2026-05-07 11:29 55.62559 12.65200 17 ft 8 kts 182°
2026-05-07 11:29 55.62494 12.65202 17 ft 10 kts 179°
2026-05-07 11:30 55.62415 12.65204 17 ft 12 kts 179°
2026-05-07 11:30 55.62324 12.65206 17 ft 14 kts 179°
2026-05-07 11:30 55.62222 12.65191 17 ft 15 kts 194°
2026-05-07 11:30 55.62128 12.65091 20 ft 17 kts 212°
2026-05-07 11:31 55.62023 12.64972 19 ft 19 kts 213°
2026-05-07 11:31 55.61903 12.64830 17 ft 22 kts 214°
2026-05-07 11:31 55.61770 12.64675 17 ft 24 kts 213°
2026-05-07 11:31 55.61623 12.64509 17 ft 26 kts 213°
2026-05-07 11:32 55.61323 12.64163 17 ft 25 kts 213°
2026-05-07 11:32 55.61267 12.64098 17 ft 3 kts 213°
2026-05-07 11:32 55.61220 12.64044 17 ft 13 kts 213°
2026-05-07 11:33 55.61131 12.63942 17 ft 16 kts 212°
2026-05-07 11:33 55.61030 12.63827 17 ft 18 kts 214°
2026-05-07 11:33 55.60919 12.63697 17 ft 20 kts 213°
2026-05-07 11:33 55.60819 12.63591 17 ft 11 kts 194°
2026-05-07 11:34 55.60751 12.63665 17 ft 13 kts 133°
2026-05-07 11:34 55.60689 12.63793 18 ft 14 kts 123°
2026-05-07 11:34 55.60727 12.63950 19 ft 22 kts 41°
2026-05-07 11:34 55.61061 12.64467 16 ft 107 kts 41°
2026-05-07 11:35 55.61793 12.65592 99 ft 162 kts 37°
2026-05-07 11:35 55.62660 12.66906 935 ft 165 kts 40°
2026-05-07 11:35 55.63549 12.68289 1764 ft 179 kts 40°
2026-05-07 11:35 55.64523 12.69810 2133 ft 197 kts 40°
2026-05-07 11:36 55.65619 12.71510 2379 ft 222 kts 39°
2026-05-07 11:36 55.66860 12.73374 2780 ft 245 kts 39°
2026-05-07 11:36 55.68188 12.75346 3549 ft 253 kts 39°
2026-05-07 11:36 55.69323 12.77754 4416 ft 259 kts 61°
2026-05-07 11:37 55.69831 12.80838 5318 ft 266 kts 84°
2026-05-07 11:37 55.69588 12.84098 6180 ft 272 kts 109°
2026-05-07 11:37 55.68585 12.86952 7018 ft 277 kts 134°
2026-05-07 11:37 55.66977 12.88857 7820 ft 283 kts 157°
2026-05-07 11:38 55.65118 12.90094 8642 ft 287 kts 159°
2026-05-07 11:38 55.63180 12.91007 9464 ft 291 kts 173°
2026-05-07 11:38 55.61149 12.90949 10249 ft 296 kts 189°
2026-05-07 11:38 55.59127 12.89807 10488 ft 318 kts 210°
2026-05-07 11:39 55.57406 12.87189 10659 ft 338 kts 235°
2026-05-07 11:39 55.56228 12.83520 11117 ft 347 kts 243°
2026-05-07 11:39 55.55480 12.80998 11547 ft 350 kts 243°
2026-05-07 11:39 55.54347 12.77180 12247 ft 352 kts 243°
2026-05-07 11:40 55.53205 12.73349 12959 ft 353 kts 243°
2026-05-07 11:40 55.52051 12.69509 13685 ft 355 kts 243°
2026-05-07 11:40 55.50888 12.65645 14322 ft 358 kts 242°
2026-05-07 11:40 55.49710 12.61751 14915 ft 360 kts 242°
2026-05-07 11:41 55.48525 12.57848 15512 ft 362 kts 242°
2026-05-07 11:41 55.47336 12.53920 16093 ft 364 kts 242°
2026-05-07 11:41 55.46135 12.49956 16673 ft 367 kts 243°
2026-05-07 11:41 55.44932 12.45979 17257 ft 370 kts 243°
2026-05-07 11:42 55.43717 12.41972 17846 ft 372 kts 242°
2026-05-07 11:42 55.42490 12.37942 18424 ft 375 kts 242°
2026-05-07 11:42 55.41254 12.33887 18936 ft 377 kts 242°
2026-05-07 11:42 55.40008 12.29814 19454 ft 379 kts 242°
2026-05-07 11:43 55.38753 12.25711 19970 ft 382 kts 242°
2026-05-07 11:43 55.37488 12.21582 20482 ft 385 kts 242°
2026-05-07 11:43 55.36213 12.17428 20971 ft 387 kts 242°
2026-05-07 11:43 55.34928 12.13248 21447 ft 390 kts 242°
2026-05-07 11:44 55.33644 12.09090 21889 ft 393 kts 242°
2026-05-07 11:44 55.32335 12.04861 22337 ft 395 kts 242°
2026-05-07 11:44 55.31017 12.00606 22784 ft 398 kts 242°
2026-05-07 11:44 55.29689 11.96324 23224 ft 401 kts 242°
2026-05-07 11:45 55.28351 11.92007 23665 ft 403 kts 242°
2026-05-07 11:45 55.27003 11.87671 24022 ft 406 kts 242°
2026-05-07 11:45 55.25645 11.83310 24376 ft 409 kts 242°
2026-05-07 11:45 55.24276 11.78912 24725 ft 412 kts 242°
2026-05-07 11:46 55.22897 11.74492 25070 ft 415 kts 242°
2026-05-07 11:46 55.21504 11.70042 25422 ft 417 kts 242°
2026-05-07 11:46 55.20103 11.65580 25780 ft 419 kts 242°
2026-05-07 11:46 55.18693 11.61101 26115 ft 421 kts 242°
2026-05-07 11:47 55.17270 11.56585 26374 ft 426 kts 242°
2026-05-07 11:47 55.15831 11.52022 26675 ft 430 kts 242°
2026-05-07 11:47 55.14382 11.47437 27001 ft 432 kts 242°
2026-05-07 11:47 55.12917 11.42818 27335 ft 435 kts 242°
2026-05-07 11:48 55.11446 11.38180 27660 ft 438 kts 242°
2026-05-07 11:48 55.09965 11.33511 27991 ft 441 kts 242°
2026-05-07 11:48 55.08476 11.28822 28309 ft 443 kts 242°
2026-05-07 11:48 55.06974 11.24113 28667 ft 445 kts 242°
2026-05-07 11:49 55.05462 11.19398 29134 ft 444 kts 242°
2026-05-07 11:49 55.03953 11.14701 29576 ft 444 kts 242°
2026-05-07 11:49 55.02464 11.10075 30012 ft 444 kts 242°
2026-05-07 11:49 55.00949 11.05372 30435 ft 443 kts 241°
2026-05-07 11:50 54.99445 11.00714 30880 ft 441 kts 241°
2026-05-07 11:50 54.97942 10.96066 31315 ft 440 kts 241°
2026-05-07 11:50 54.96436 10.91420 31647 ft 441 kts 242°
2026-05-07 11:50 54.94924 10.86767 32000 ft 442 kts 241°
2026-05-07 11:51 54.93344 10.82175 32356 ft 443 kts 239°
2026-05-07 11:51 54.91658 10.77679 32750 ft 443 kts 237°
2026-05-07 11:51 54.89910 10.73280 33159 ft 443 kts 236°
2026-05-07 11:51 54.88128 10.68922 33588 ft 442 kts 236°
2026-05-07 11:52 54.86349 10.64579 33986 ft 442 kts 236°
2026-05-07 11:52 54.84579 10.60212 34101 ft 445 kts 236°
2026-05-07 11:52 54.82803 10.55772 34111 ft 449 kts 236°
2026-05-07 11:53 54.79265 10.46815 34114 ft 449 kts 236°
2026-05-07 11:53 54.75743 10.37885 34114 ft 448 kts 236°
2026-05-07 11:54 54.72210 10.28995 34114 ft 448 kts 237°
2026-05-07 11:54 54.69097 10.19657 34117 ft 448 kts 242°
2026-05-07 11:55 54.66083 10.10310 34117 ft 448 kts 242°
2026-05-07 11:55 54.63032 10.00916 34118 ft 448 kts 242°
2026-05-07 11:56 54.59979 9.91531 34109 ft 448 kts 241°
2026-05-07 11:56 54.56926 9.82164 34115 ft 447 kts 240°
2026-05-07 11:57 54.53880 9.72846 34119 ft 445 kts 242°
2026-05-07 11:57 54.50828 9.63565 34086 ft 446 kts 241°
2026-05-07 11:58 54.47755 9.54248 34063 ft 448 kts 242°
2026-05-07 11:58 54.44660 9.44907 34063 ft 450 kts 242°
2026-05-07 11:59 54.41570 9.35608 34063 ft 451 kts 241°
2026-05-07 11:59 54.38452 9.26253 34077 ft 451 kts 241°
2026-05-07 12:00 54.35326 9.16927 34094 ft 450 kts 241°
2026-05-07 12:00 54.32198 9.07638 34097 ft 450 kts 240°
2026-05-07 12:01 54.29056 8.98339 34083 ft 451 kts 240°
2026-05-07 12:01 54.25907 8.89037 34086 ft 452 kts 240°
2026-05-07 12:02 54.22739 8.79724 34090 ft 453 kts 240°
2026-05-07 12:02 54.19570 8.70432 34103 ft 453 kts 240°
2026-05-07 12:03 54.16391 8.61151 34116 ft 452 kts 240°
2026-05-07 12:03 54.13205 8.51911 34114 ft 451 kts 240°
2026-05-07 12:04 54.10048 8.42763 34110 ft 451 kts 240°
2026-05-07 12:04 54.06841 8.33488 34096 ft 452 kts 240°
2026-05-07 12:05 54.03661 8.24329 34087 ft 453 kts 240°
2026-05-07 12:05 54.00436 8.15100 34095 ft 453 kts 239°
2026-05-07 12:06 53.97205 8.05897 34101 ft 453 kts 239°
2026-05-07 12:06 53.93967 7.96700 34122 ft 452 kts 239°
2026-05-07 12:07 53.90737 7.87562 34111 ft 451 kts 239°
2026-05-07 12:07 53.87503 7.78433 34090 ft 452 kts 239°
2026-05-07 12:08 53.84252 7.69298 34090 ft 453 kts 239°
2026-05-07 12:08 53.80984 7.60154 34088 ft 454 kts 239°
2026-05-07 12:09 53.77711 7.51021 34090 ft 454 kts 239°
2026-05-07 12:09 53.74433 7.41898 34111 ft 453 kts 239°
2026-05-07 12:10 53.71158 7.32820 34112 ft 451 kts 239°
2026-05-07 12:10 53.67887 7.23796 34094 ft 451 kts 238°
2026-05-07 12:11 53.64621 7.14824 34087 ft 452 kts 238°
2026-05-07 12:11 53.61326 7.05780 34085 ft 453 kts 238°
2026-05-07 12:12 53.58007 6.96737 34081 ft 454 kts 238°
2026-05-07 12:12 53.54605 6.87796 34089 ft 454 kts 236°
2026-05-07 12:13 53.50944 6.79171 34119 ft 451 kts 233°
2026-05-07 12:13 53.47221 6.70705 34112 ft 450 kts 233°
2026-05-07 12:14 53.43548 6.62247 34086 ft 451 kts 234°
2026-05-07 12:14 53.39875 6.53685 34078 ft 453 kts 234°
2026-05-07 12:15 53.36190 6.45113 34081 ft 454 kts 234°
2026-05-07 12:15 53.32483 6.36543 34091 ft 455 kts 234°
2026-05-07 12:16 53.28762 6.27975 34098 ft 455 kts 234°
2026-05-07 12:16 53.25039 6.19422 34095 ft 455 kts 234°
2026-05-07 12:17 53.21306 6.10879 34096 ft 456 kts 233°
2026-05-07 12:17 53.17553 6.02334 34094 ft 456 kts 233°
2026-05-07 12:18 53.13795 5.93800 34099 ft 457 kts 233°
2026-05-07 12:18 53.10027 5.85269 34113 ft 457 kts 233°
2026-05-07 12:19 53.06255 5.76772 34124 ft 456 kts 233°
2026-05-07 12:19 53.02496 5.68307 34124 ft 455 kts 233°
2026-05-07 12:20 52.98758 5.59919 34104 ft 454 kts 233°
2026-05-07 12:20 52.94991 5.51503 34095 ft 454 kts 232°
2026-05-07 12:21 52.91211 5.43095 34098 ft 455 kts 233°
2026-05-07 12:21 52.87427 5.34706 34105 ft 455 kts 232°
2026-05-07 12:22 52.83635 5.26327 34120 ft 454 kts 232°
2026-05-07 12:22 52.80461 5.19339 34123 ft 453 kts 232°
2026-05-07 12:23 52.76682 5.11016 34121 ft 453 kts 233°
2026-05-07 12:23 52.72899 5.02704 34112 ft 452 kts 232°
2026-05-07 12:24 52.69128 4.94468 34104 ft 453 kts 232°
2026-05-07 12:24 52.65311 4.86177 34101 ft 453 kts 232°
2026-05-07 12:25 52.61511 4.77932 34125 ft 451 kts 232°
2026-05-07 12:25 52.57717 4.69725 34119 ft 450 kts 232°
2026-05-07 12:26 52.53931 4.61548 34113 ft 449 kts 232°
2026-05-07 12:26 52.50163 4.53448 34112 ft 449 kts 232°
2026-05-07 12:27 52.46367 4.45326 34108 ft 448 kts 232°
2026-05-07 12:27 52.42563 4.37213 34130 ft 447 kts 232°
2026-05-07 12:28 52.38773 4.29141 34128 ft 445 kts 232°
2026-05-07 12:28 52.35001 4.21143 34119 ft 443 kts 232°
2026-05-07 12:29 52.31242 4.13186 34124 ft 442 kts 232°
2026-05-07 12:29 52.27498 4.05285 34128 ft 441 kts 232°
2026-05-07 12:30 52.23741 3.97373 34124 ft 441 kts 232°
2026-05-07 12:30 52.19974 3.89475 34121 ft 440 kts 232°
2026-05-07 12:31 52.16207 3.81608 34134 ft 439 kts 232°
2026-05-07 12:31 52.12460 3.73830 34121 ft 439 kts 232°
2026-05-07 12:32 52.08698 3.66019 34125 ft 439 kts 232°
2026-05-07 12:32 52.04925 3.58228 34124 ft 438 kts 232°
2026-05-07 12:33 51.99272 3.46555 34115 ft 438 kts 232°
2026-05-07 12:33 51.95505 3.38800 34130 ft 437 kts 232°
2026-05-07 12:34 51.91724 3.31073 34131 ft 436 kts 231°
2026-05-07 12:34 51.87954 3.23366 34123 ft 436 kts 234°
2026-05-07 12:35 51.85177 3.14685 34128 ft 438 kts 252°
2026-05-07 12:35 51.84144 3.05000 34118 ft 438 kts 263°
2026-05-07 12:36 51.83512 2.95274 34123 ft 437 kts 263°
2026-05-07 12:36 51.82865 2.85494 34115 ft 438 kts 263°
2026-05-07 12:37 51.82203 2.75637 34100 ft 439 kts 263°
2026-05-07 12:37 51.81531 2.65832 34097 ft 439 kts 263°
2026-05-07 12:38 51.80859 2.56085 33980 ft 440 kts 263°
2026-05-07 12:38 51.80519 2.51160 33698 ft 439 kts 263°
2026-05-07 12:38 51.80176 2.46263 33414 ft 439 kts 263°
2026-05-07 12:39 51.79831 2.41353 33171 ft 440 kts 263°
2026-05-07 12:39 51.79481 2.36429 32884 ft 442 kts 263°
2026-05-07 12:39 51.79128 2.31494 32615 ft 443 kts 262°
2026-05-07 12:39 51.78769 2.26540 32349 ft 444 kts 263°
2026-05-07 12:40 51.78410 2.21593 32078 ft 441 kts 263°
2026-05-07 12:40 51.78079 2.16672 31817 ft 440 kts 264°
2026-05-07 12:40 51.77788 2.11766 31539 ft 439 kts 264°
2026-05-07 12:40 51.77513 2.06837 30652 ft 443 kts 264°
2026-05-07 12:41 51.77244 2.01901 30109 ft 439 kts 264°
2026-05-07 12:41 51.76973 1.97024 29476 ft 434 kts 264°
2026-05-07 12:41 51.76695 1.92203 28899 ft 429 kts 264°
2026-05-07 12:41 51.76409 1.87447 28310 ft 424 kts 264°
2026-05-07 12:42 51.76117 1.82732 27735 ft 420 kts 263°
2026-05-07 12:42 51.75825 1.78071 27160 ft 415 kts 263°
2026-05-07 12:42 51.75536 1.73457 26597 ft 411 kts 263°
2026-05-07 12:42 51.75249 1.68885 26036 ft 408 kts 263°
2026-05-07 12:43 51.74964 1.64350 25479 ft 404 kts 263°
2026-05-07 12:43 51.74681 1.59853 24916 ft 402 kts 263°
2026-05-07 12:43 51.74396 1.55372 24310 ft 401 kts 263°
2026-05-07 12:43 51.74116 1.50962 23722 ft 400 kts 263°
2026-05-07 12:44 51.73827 1.46448 23036 ft 398 kts 263°
2026-05-07 12:44 51.73548 1.42084 22462 ft 395 kts 263°
2026-05-07 12:44 51.73264 1.37688 21871 ft 392 kts 263°
2026-05-07 12:44 51.72978 1.33323 21274 ft 390 kts 263°
2026-05-07 12:45 51.72692 1.28988 20696 ft 388 kts 263°
2026-05-07 12:45 51.72405 1.24674 20119 ft 386 kts 263°
2026-05-07 12:45 51.72115 1.20372 19540 ft 385 kts 263°
2026-05-07 12:45 51.71826 1.16094 18966 ft 383 kts 263°
2026-05-07 12:46 51.71539 1.11826 18385 ft 382 kts 263°
2026-05-07 12:46 51.71252 1.07579 17760 ft 380 kts 263°
2026-05-07 12:46 51.70964 1.03368 17197 ft 376 kts 263°
2026-05-07 12:46 51.70675 0.99207 16633 ft 372 kts 263°
2026-05-07 12:47 51.70390 0.95082 16078 ft 368 kts 263°
2026-05-07 12:47 51.70110 0.90988 15445 ft 367 kts 263°
2026-05-07 12:47 51.69829 0.86902 14806 ft 367 kts 263°
2026-05-07 12:47 51.69545 0.82820 14165 ft 366 kts 262°
2026-05-07 12:48 51.69259 0.78745 13494 ft 366 kts 262°
2026-05-07 12:48 51.68970 0.74681 12848 ft 364 kts 263°
2026-05-07 12:48 51.68682 0.70648 12224 ft 361 kts 263°
2026-05-07 12:48 51.68393 0.66639 11597 ft 359 kts 263°
2026-05-07 12:49 51.68109 0.62675 11254 ft 350 kts 263°
2026-05-07 12:49 51.67837 0.58870 11124 ft 335 kts 262°
2026-05-07 12:49 51.67574 0.55211 10997 ft 322 kts 263°
2026-05-07 12:49 51.67319 0.51679 10865 ft 311 kts 263°
2026-05-07 12:50 51.67073 0.48280 10749 ft 300 kts 263°
2026-05-07 12:50 51.66833 0.44976 10546 ft 294 kts 262°
2026-05-07 12:50 51.66598 0.41778 10061 ft 290 kts 262°
2026-05-07 12:50 51.66361 0.38561 9425 ft 288 kts 262°
2026-05-07 12:51 51.66129 0.35395 8950 ft 283 kts 262°
2026-05-07 12:51 51.65892 0.32226 8507 ft 286 kts 262°
2026-05-07 12:51 51.65655 0.29063 8215 ft 283 kts 262°
2026-05-07 12:51 51.65421 0.25946 8067 ft 278 kts 262°
2026-05-07 12:52 51.65186 0.22868 8072 ft 274 kts 261°
2026-05-07 12:52 51.64961 0.19901 8077 ft 261 kts 262°
2026-05-07 12:52 51.64756 0.17058 8076 ft 250 kts 265°
2026-05-07 12:52 51.65003 0.14195 8086 ft 272 kts 284°
2026-05-07 12:53 51.65562 0.11226 8082 ft 280 kts 286°
2026-05-07 12:53 51.66160 0.08235 8081 ft 281 kts 286°
2026-05-07 12:53 51.66764 0.05235 8081 ft 281 kts 286°
2026-05-07 12:53 51.67354 0.02274 8081 ft 281 kts 286°
2026-05-07 12:54 51.67948 -0.00739 8083 ft 281 kts 287°
2026-05-07 12:54 51.68452 -0.03756 8078 ft 277 kts 275°
2026-05-07 12:54 51.68253 -0.06806 8083 ft 275 kts 254°
2026-05-07 12:54 51.67702 -0.09752 8082 ft 275 kts 251°
2026-05-07 12:55 51.67248 -0.12019 7994 ft 274 kts 251°
2026-05-07 12:55 51.66628 -0.15077 7670 ft 272 kts 251°
2026-05-07 12:55 51.66041 -0.17956 7363 ft 270 kts 251°
2026-05-07 12:55 51.65452 -0.20814 7125 ft 267 kts 251°
2026-05-07 12:56 51.64865 -0.23651 7087 ft 268 kts 251°
2026-05-07 12:56 51.64275 -0.26498 7083 ft 268 kts 251°
2026-05-07 12:56 51.63697 -0.29283 7082 ft 269 kts 251°
2026-05-07 12:56 51.63106 -0.32136 7084 ft 268 kts 251°
2026-05-07 12:57 51.62516 -0.34983 7080 ft 268 kts 251°
2026-05-07 12:57 51.61926 -0.37831 7081 ft 268 kts 251°
2026-05-07 12:57 51.61335 -0.40679 7081 ft 268 kts 251°
2026-05-07 12:57 51.60743 -0.43528 7081 ft 268 kts 251°
2026-05-07 12:58 51.60155 -0.46357 7085 ft 268 kts 251°
2026-05-07 12:58 51.59562 -0.49204 7082 ft 269 kts 251°
2026-05-07 12:58 51.58969 -0.52058 7086 ft 269 kts 251°
2026-05-07 12:58 51.58375 -0.54906 7084 ft 269 kts 251°
2026-05-07 12:59 51.57782 -0.57754 7085 ft 269 kts 251°
2026-05-07 12:59 51.57189 -0.60599 7073 ft 268 kts 251°
2026-05-07 12:59 51.56596 -0.63459 7075 ft 270 kts 251°
2026-05-07 12:59 51.56003 -0.66316 7082 ft 270 kts 251°
2026-05-07 13:00 51.55409 -0.69180 7059 ft 268 kts 251°
2026-05-07 13:00 51.54822 -0.72005 6446 ft 269 kts 251°
2026-05-07 13:00 51.54210 -0.74910 5511 ft 279 kts 251°
2026-05-07 13:00 51.53572 -0.77903 4595 ft 286 kts 251°
2026-05-07 13:01 51.52711 -0.80720 4125 ft 275 kts 230°
2026-05-07 13:01 51.51254 -0.82470 3992 ft 254 kts 201°
2026-05-07 13:01 51.49596 -0.82595 3986 ft 234 kts 162°
2026-05-07 13:01 51.48362 -0.81077 3968 ft 223 kts 123°
2026-05-07 13:02 51.47758 -0.78803 3793 ft 222 kts 101°
2026-05-07 13:02 51.47610 -0.76353 3539 ft 221 kts 91°
2026-05-07 13:02 51.47612 -0.73894 3253 ft 220 kts 89°
2026-05-07 13:02 51.47631 -0.71435 2957 ft 220 kts 89°
2026-05-07 13:03 51.47647 -0.68976 2661 ft 221 kts 89°
2026-05-07 13:03 51.47662 -0.66528 2351 ft 216 kts 89°
2026-05-07 13:03 51.47674 -0.64159 2065 ft 209 kts 89°
2026-05-07 13:03 51.47686 -0.61907 1809 ft 192 kts 89°
2026-05-07 13:04 51.47696 -0.59890 1533 ft 175 kts 89°
2026-05-07 13:04 51.47705 -0.58056 1330 ft 155 kts 89°
2026-05-07 13:04 51.47713 -0.56374 1114 ft 148 kts 89°
2026-05-07 13:04 51.47721 -0.54753 908 ft 143 kts 89°
2026-05-07 13:05 51.47726 -0.53684 769 ft 141 kts 90°
2026-05-07 13:05 51.47733 -0.52136 579 ft 138 kts 90°
2026-05-07 13:05 51.47741 -0.50611 383 ft 136 kts 89°
2026-05-07 13:05 51.47750 -0.49092 169 ft 135 kts 91°
2026-05-07 13:06 51.47755 -0.47619 87 ft 122 kts 91°
2026-05-07 13:06 51.47757 -0.46523 91 ft 64 kts 89°
2026-05-07 13:06 51.47748 -0.46239 88 ft 18 kts 109°
2026-05-07 13:06 51.47659 -0.46104 91 ft 15 kts 147°
2026-05-07 13:07 51.47602 -0.46098 90 ft 9 kts 227°
2026-05-07 13:07 51.47590 -0.46200 86 ft 10 kts 268°
2026-05-07 13:07 51.47591 -0.46329 86 ft 13 kts 272°
2026-05-07 13:07 51.47593 -0.46483 86 ft 15 kts 270°
2026-05-07 13:08 51.47592 -0.46662 86 ft 17 kts 269°
2026-05-07 13:08 51.47584 -0.46869 88 ft 20 kts 261°
2026-05-07 13:08 51.47582 -0.47101 90 ft 22 kts 270°
2026-05-07 13:08 51.47581 -0.47363 86 ft 25 kts 269°
2026-05-07 13:09 51.47580 -0.47625 87 ft 19 kts 269°
2026-05-07 13:09 51.47578 -0.47849 89 ft 21 kts 269°
2026-05-07 13:09 51.47576 -0.48101 86 ft 24 kts 269°
2026-05-07 13:09 51.47574 -0.48365 86 ft 21 kts 270°
2026-05-07 13:10 51.47506 -0.48472 89 ft 16 kts 186°
2026-05-07 13:10 51.47384 -0.48475 86 ft 19 kts 180°
2026-05-07 13:10 51.47246 -0.48473 86 ft 21 kts 180°
2026-05-07 13:10 51.47124 -0.48472 88 ft 14 kts 179°
2026-05-07 13:11 51.47087 -0.48502 89 ft 4 kts 264°
2026-05-07 13:11 51.47087 -0.48550 86 ft 5 kts 270°
2026-05-07 13:11 51.47087 -0.48583 86 ft 0 kts 270°